Weather History for Jacksonville, FL

Change the Weather History Date:

Saturday, February 16, 2013

  Actual Average Record
Temperature  
Mean Temperature 49 °F 57 °F  
Max Temperature 60 °F 68 °F 86 °F (1990)
Min Temperature 38 °F 45 °F 25 °F (1991)
Degree Days  
Heating Degree Days 16 9  
Month to date heating degree days 143 161  
Since 1 July heating degree days 800 1037  
Cooling Degree Days 0 1  
Month to date cooling degree days 16 11  
Year to date cooling degree days 57 22  
Moisture  
Dew Point 38 °F    
Average Humidity 71    
Maximum Humidity 100    
Minimum Humidity 41    
Precipitation  
Precipitation 0.02 in 0.12 in 2.46 in (1952)
Month to date precipitation 0.26 1.73  
Year to date precipitation 1.27 5.03  
Snow  
Snow 0.00 in 0.00 in T in (1977)
Month to date snowfall 0.0 0.0  
Since 1 July snowfall 0.0 T  
Snow Depth 0.00 in    
Sea Level Pressure  
Sea Level Pressure 29.99 in    
Wind  
Wind Speed 7 mph (West)    
Max Wind Speed 25 mph    
Max Gust Speed 36 mph    
Visibility 10 miles    
Events Rain    
T = Trace of Precipitation, MM = Missing Value Source: NWS Daily Summary

Daily Weather History Graph

Daily Weather History Graph

Search for Another Location

Airport:

Trip Planner

Search our weather history database for the weather conditions in past years. The results will help you decide how hot, cold, wet, or windy it might be!

Date:

Astronomy

Feb. 16, 2013 Rise Set
Actual Time 7:06 AM EST 6:15 PM EST
Civil Twilight 6:41 AM EST 6:40 PM EST
Nautical Twilight 6:13 AM EST 7:08 PM EST
Astronomical Twilight 5:45 AM EST 7:36 PM EST
Moon 10:48 AM EST (2/16) No Moon Set
Length of Visible Light 11h 59m
Length of Day
11h 09m
Waxing Crescent, 39% of the Moon is Illuminated
Feb 16
Waxing Crescent
Feb 17
First Quarter
Feb 25
Full
Mar 4
Last Quarter
Mar 11
New

Hourly Weather History & Observations

Time (EST) Temp. Windchill Dew Point Humidity Pressure Visibility Wind Dir Wind Speed Gust Speed Precip Events Conditions
12:56 AM 41.0 °F - 39.9 °F 96% 30.01 in 10.0 mi Calm Calm - N/A   Mostly Cloudy
1:56 AM 42.1 °F - 41.0 °F 96% 29.98 in 8.0 mi Calm Calm - N/A   Overcast
2:56 AM 43.0 °F - 42.1 °F 97% 29.96 in 8.0 mi Calm Calm - N/A   Overcast
3:56 AM 43.0 °F 41.3 °F 41.0 °F 93% 29.95 in 8.0 mi WSW 3.5 mph - N/A   Overcast
4:56 AM 44.1 °F 41.5 °F 42.1 °F 93% 29.94 in 9.0 mi WSW 4.6 mph - N/A   Mostly Cloudy
5:56 AM 44.6 °F - 42.8 °F 93% 29.93 in 10.0 mi Calm Calm - N/A   Overcast
6:56 AM 43.0 °F - 42.1 °F 97% 29.93 in 10.0 mi Calm Calm - N/A   Overcast
7:56 AM 44.1 °F 41.5 °F 41.0 °F 89% 29.94 in 10.0 mi West 4.6 mph - N/A   Mostly Cloudy
8:56 AM 46.0 °F 43.1 °F 42.1 °F 86% 29.94 in 10.0 mi West 5.8 mph - N/A   Mostly Cloudy
9:56 AM 50.0 °F - 42.1 °F 74% 29.95 in 10.0 mi WNW 5.8 mph - N/A   Mostly Cloudy
10:56 AM 53.1 °F - 42.1 °F 66% 29.94 in 10.0 mi WSW 6.9 mph - N/A   Mostly Cloudy
11:56 AM 59.0 °F - 41.0 °F 51% 29.95 in 10.0 mi WNW 18.4 mph 26.5 mph N/A   Mostly Cloudy
12:56 PM 55.9 °F - 37.0 °F 49% 29.96 in 10.0 mi NW 21.9 mph 29.9 mph N/A   Mostly Cloudy
1:56 PM 50.0 °F - 35.1 °F 57% 29.97 in 10.0 mi WNW 16.1 mph 24.2 mph N/A   Overcast
2:56 PM 45.0 °F 40.6 °F 39.9 °F 82% 29.97 in 10.0 mi West 8.1 mph - 0.01 in   Mostly Cloudy
3:52 PM 46.4 °F 40.4 °F 39.2 °F 76% 29.97 in 10.0 mi West 13.8 mph - N/A   Mostly Cloudy
3:56 PM 48.0 °F - 39.0 °F 71% 29.97 in 10.0 mi West 10.4 mph - N/A   Mostly Cloudy
4:18 PM 48.2 °F - 37.4 °F 66% 29.96 in 10.0 mi West 9.2 mph - N/A   Mostly Cloudy
4:45 PM 48.2 °F - 37.4 °F 66% 29.95 in 10.0 mi West 8.1 mph - N/A   Mostly Cloudy
4:56 PM 48.9 °F - 37.9 °F 66% 29.96 in 10.0 mi WNW 9.2 mph - N/A   Mostly Cloudy
5:11 PM 44.6 °F 38.1 °F 39.2 °F 81% 29.97 in 6.0 mi WNW 13.8 mph 34.5 mph 0.01 in Rain Light Rain
5:56 PM 44.1 °F 41.5 °F 39.9 °F 85% 29.98 in 10.0 mi WSW 4.6 mph - 0.01 in   Mostly Cloudy
6:56 PM 42.1 °F 40.2 °F 39.9 °F 92% 30.01 in 10.0 mi West 3.5 mph - N/A   Scattered Clouds
7:56 PM 39.9 °F 35.8 °F 37.9 °F 93% 30.04 in 10.0 mi West 5.8 mph - N/A   Scattered Clouds
8:56 PM 43.0 °F 36.4 °F 30.9 °F 62% 30.07 in 10.0 mi WNW 12.7 mph - N/A   Partly Cloudy
9:56 PM 41.0 °F 34.3 °F 24.1 °F 51% 30.11 in 10.0 mi WNW 11.5 mph - N/A   Clear
10:56 PM 41.0 °F 34.7 °F 19.0 °F 41% 30.13 in 10.0 mi NW 10.4 mph - N/A   Clear
11:56 PM 39.0 °F 33.4 °F 19.0 °F 45% 30.16 in 10.0 mi NW 8.1 mph - N/A   Clear